Location: ???
(60.6398°N, 46.9067°E)
Time: 17:06:40
(UTC+00:00)

Lacrosse 4 Rocket - Pass Details

Date: 08 December 2019
Orbit: 540 x 619 km, 68.0° (Epoch: 22 January)

Event Time Altitude Azimuth Distance (km) Brightness Sun altitude
Rises 13:42:01 0° 284° (WNW) 2,715 5.8 -12.4°
Reaches altitude 10° 13:44:25 10° 295° (WNW) 1,828 4.6 -12.7°
Maximum altitude 13:48:02 29° 358° (N) 1,031 2.5 -13.1°
Enters shadow 13:50:06 19° 43° (NE) 1,352 2.8 -13.3°
